Weather Roundup
Issued by NWS Chicago, IL

Home | Current Version | Previous Version | Text Only | Print | Product List | Glossary Off
Versions: 1 2 3 4 5 6 7 8 9 10 11 12 13 14 15 16 17 18 19 20 21 22 23 24 25 26 27 28 29 30 31 32 33 34 35 36 37 38 39 40 41 42 43 44 45 46 47 48 49 50

000
NZUS59 KLOT 231703
HRRLOT

CHICAGO AREA WEATHER ROUNDUP
NATIONAL WEATHER SERVICE CHICAGO/ROMEOVILLE IL
1200 PM CDT WED AUG 23 2017

NOTE: "FAIR" INDICATES FEW OR NO CLOUDS BELOW 12,000 FEET WITH NO
SIGNIFICANT WEATHER AND/OR OBSTRUCTIONS TO VISIBILITY.

* THESE STATIONS ARE NOT UNDER NWS QUALITY CONTROL. THEY ALSO MAY NOT
  REPORT WEATHER SUCH AS PRECIPITATION OR FOG.

ILZ005-006-012>014-019>023-231800-
NORTHEAST ILLINOIS

CITY           SKY/WX    TMP DP  RH WIND       PRES   REMARKS
OHARE          MOSUNNY   77  48  35 NW15      30.04S
MIDWAY         MOSUNNY   76  49  38 NW17      30.04S
AURORA         SUNNY     73  56  54 W13       30.07S
LANSING*       PTSUNNY   75  53  45 NW12      30.04F
JOLIET*          N/A    N/A N/A N/A MISG        N/A
WAUKEGAN       MOSUNNY   71  53  52 N9        30.04S
DUPAGE AIRPORT SUNNY     73  53  49 NW12G20   30.05S
WHEELING       MOSUNNY   74  54  49 NW10      30.06S
MORRIS*        SUNNY     73  55  52 NW8       30.06S
LEWIS AIRPORT* SUNNY     73  55  53 NW12      30.06F
NORTHERLY ISL    N/A     72  55  55 NE9         N/A
$$

WIZ051-052-058>065-066-070>072-231800-
SOUTHEAST WISCONSIN

CITY           SKY/WX    TMP DP  RH WIND       PRES   REMARKS
MILWAUKEE      PTSUNNY   73  51  46 NW13      30.03S
KENOSHA*       MOSUNNY   73  52  47 NW10      30.05R
RACINE*        MOSUNNY   72  52  49 N13       30.05S
WAUKESHA       MOSUNNY   68  50  52 NW10G17   30.06R
$$

INZ001>003-010>013-019-020-231800-
NORTHWEST INDIANA

CITY           SKY/WX    TMP DP  RH WIND       PRES   REMARKS
GARY*          NOT AVBL
MICHIGAN CITY* NOT AVBL
RENSSELAER*    NOT AVBL
VALPARAISO     MOSUNNY   75  52  44 NW8G17    30.05S
$$

LMZ740>746-231800-
SOUTHERN LAKE MICHIGAN

STATION/POSITION TIME  SKY/WX   TEMP WIND        PRES    VSBY
                                AIR  DIR/SP/G
                 (UTC)          (F)  (DEG/KT/KT) (MB)    (MI)
HARRISON CRIB    1640            69  360/  8/  9   N/A
BURNHAM HARBOR   NOT AVBL
CALUMET HARBOR   1630            74  300/  8/ 12 1016.8R
BURNS HARBOR     1640            69  340/  7/  9 1018.3R
MICHIGAN CITY    1640            69  310/ 13/ 15   N/A
$$

ABBREVIATIONS USED IN REMARKS
   TC - TEMPERATURE IN CELSIUS
  WCI - WIND CHILL INDEX
   HX - HEAT INDEX
  VSB - VISIBILITY
$$



USA.gov is the U.S. government's official web portal to all federal, state and local government web resources and services.